TimeEST,TemperatureF,Dew PointF,Humidity,Sea Level PressureIn,VisibilityMPH,Wind Direction,Wind SpeedMPH,Gust SpeedMPH,PrecipitationIn,Events,Conditions,WindDirDegrees,DateUTC
12:51 AM,41.0,37.9,89,30.09,10.0,North,3.5,-,N/A,,Clear,10,2012-11-04 04:51:00
1:51 AM,41.0,37.9,89,30.09,10.0,Calm,Calm,-,N/A,,Scattered Clouds,0,2012-11-04 05:51:00
1:51 AM,41.0,37.9,89,30.07,10.0,Calm,Calm,-,N/A,,Partly Cloudy,0,2012-11-04 06:51:00
2:51 AM,41.0,37.9,89,30.08,10.0,Calm,Calm,-,N/A,,Mostly Cloudy,0,2012-11-04 07:51:00
3:51 AM,41.0,37.9,89,30.08,10.0,Calm,Calm,-,N/A,,Clear,0,2012-11-04 08:51:00
4:51 AM,43.0,39.9,89,30.08,10.0,Calm,Calm,-,N/A,,Mostly Cloudy,0,2012-11-04 09:51:00
5:51 AM,42.1,39.0,89,30.08,10.0,NNE,3.5,-,N/A,,Partly Cloudy,30,2012-11-04 10:51:00
6:51 AM,46.0,42.1,86,30.10,10.0,Calm,Calm,-,N/A,,Mostly Cloudy,0,2012-11-04 11:51:00
7:51 AM,50.0,43.0,77,30.09,10.0,ENE,3.5,-,N/A,,Mostly Cloudy,70,2012-11-04 12:51:00
8:51 AM,55.9,43.0,62,30.06,10.0,East,4.6,-,N/A,,Scattered Clouds,80,2012-11-04 13:51:00
9:51 AM,55.0,42.1,62,30.05,10.0,ENE,5.8,-,N/A,,Overcast,60,2012-11-04 14:51:00
10:51 AM,57.0,41.0,55,30.04,10.0,East,9.2,-,N/A,,Overcast,80,2012-11-04 15:51:00
11:51 AM,60.1,43.0,53,29.99,10.0,East,10.4,-,N/A,,Mostly Cloudy,80,2012-11-04 16:51:00
12:51 PM,60.1,48.0,64,29.95,10.0,East,12.7,-,N/A,,Overcast,80,2012-11-04 17:51:00
1:51 PM,59.0,48.0,67,29.91,10.0,ENE,11.5,21.9,N/A,,Scattered Clouds,60,2012-11-04 18:51:00
2:51 PM,57.9,48.9,72,29.92,10.0,NE,12.7,20.7,N/A,,Mostly Cloudy,40,2012-11-04 19:51:00
3:24 PM,55.4,48.2,77,29.93,10.0,NE,12.7,21.9,N/A,,Mostly Cloudy,40,2012-11-04 20:24:00
3:51 PM,55.0,48.0,77,29.92,10.0,NNE,12.7,23.0,N/A,,Scattered Clouds,30,2012-11-04 20:51:00
4:51 PM,54.0,48.9,83,29.94,10.0,NE,11.5,23.0,N/A,,Overcast,40,2012-11-04 21:51:00
5:51 PM,54.0,48.9,83,29.95,10.0,NE,13.8,23.0,N/A,,Overcast,40,2012-11-04 22:51:00
6:51 PM,53.1,48.0,83,29.96,10.0,NE,10.4,21.9,N/A,,Overcast,40,2012-11-04 23:51:00
7:04 PM,53.6,48.2,82,29.97,10.0,NNE,10.4,18.4,N/A,,Overcast,30,2012-11-05 00:04:00
7:51 PM,54.0,48.9,83,29.96,10.0,NNE,6.9,16.1,N/A,,Overcast,20,2012-11-05 00:51:00
8:44 PM,53.6,48.2,82,29.97,10.0,NNE,10.4,17.3,N/A,,Overcast,30,2012-11-05 01:44:00
8:51 PM,54.0,48.0,80,29.97,10.0,NNE,9.2,16.1,N/A,,Overcast,30,2012-11-05 01:51:00
9:51 PM,54.0,48.9,83,29.97,10.0,NNE,6.9,16.1,N/A,,Overcast,30,2012-11-05 02:51:00
10:51 PM,53.1,48.9,86,29.98,10.0,Variable,5.8,-,0.00,Rain,Light Rain,0,2012-11-05 03:51:00